Regional Weather Roundup
Issued by NWS

Home | Current Version | Previous Version | Graphics & Text | Print | Product List | Glossary On
Versions: 1 2 3 4 5 6 7 8 9 10 11 12 13 14 15 16 17 18 19 20 21 22 23 24 25 26 27 28 29 30 31 32 33 34 35 36 37 38 39 40 41 42 43 44 45 46 47 48 49 50
243
ASUS43 KFSD 060110
RWRSD

WEATHER ROUNDUP FOR SOUTH DAKOTA
NATIONAL WEATHER SERVICE SIOUX FALLS SD
800 PM CDT THU MAY 05 2016

NOTE: "FAIR" INDICATES FEW OR NO CLOUDS BELOW 12,000 FEET WITH NO
SIGNIFICANT WEATHER AND/OR OBSTRUCTIONS TO VISIBILITY.


SDZ001>005-009-010-012>017-060200-
NORTHWEST AND NORTH CENTRAL SOUTH DAKOTA

CITY           SKY/WX    TMP DP  RH WIND       PRES   REMARKS
BUFFALO          N/A     80  46  30 S9        29.78F
FAITH            N/A     79  50  36 CALM      29.83F
MOBRIDGE       CLEAR     79  32  18 S6        29.77F
$$

SDZ012>016-024>037-041>051-057-063-072>074-060200-
SOUTHWEST AND SOUTH CENTRAL SOUTH DAKOTA

CITY           SKY/WX    TMP DP  RH WIND       PRES   REMARKS
RAPID CTY ARPT CLOUDY    73  52  47 E9        29.85F
PIERRE         CLEAR     74  52  46 SE10      29.79F
CUSTER         CLOUDY    72  28  19 SW7       30.01R
ELLSWORTH AFB  CLEAR     76  51  40 E8        29.85F
PHILIP         CLOUDY    79  59  50 N3        29.80S
PINE RIDGE     PTCLDY    80  49  33 S6        29.87F
WINNER         LGT RAIN  76  51  41 SE13      29.84F
$$

SDZ004>011-016>023-039-040-060200-
NORTHEAST SOUTH DAKOTA

CITY           SKY/WX    TMP DP  RH WIND       PRES   REMARKS
ABERDEEN       CLEAR     82  38  20 S15       29.82F
WATERTOWN      CLEAR     72  46  39 S10       29.89S
BROOKINGS      CLEAR     72  47  40 S9        29.91S
SISSETON         N/A     79  41  25 SW12      29.82S
$$

SDZ017-020-022-023-036>040-048>070-060200-
SOUTHEAST SOUTH DAKOTA

CITY           SKY/WX    TMP DP  RH WIND       PRES   REMARKS
SIOUX FALLS    PTCLDY    69  47  45 S8        29.92F
HURON          CLEAR     78  44  29 S9        29.85F
CHAMBERLAIN    CLEAR     76  59  56 SE9       29.85F
MITCHELL       CLEAR     76  48  37 S9        29.88F
YANKTON        CLEAR     77  39  25 S8        29.91S
$$

ABBREVIATIONS USED IN REMARKS
   TC - TEMPERATURE IN CELSIUS
  WCI - WIND CHILL INDEX
   HX - HEAT INDEX
  VSB - VISIBILITY





USA.gov is the U.S. government's official web portal to all federal, state and local government web resources and services.